This is the latest recevied weather packets stored in our database for station/object CX5ACA-13. If no packets are shown the sender has not sent any weather packets the latest 10 day(s).
| Time | Temp. | Humidity | Pressure | Rain* | Wind** | Luminosity | Snow |
|---|---|---|---|---|---|---|---|
| 1778068793 | 21.11° C | 91% | 1013.7 hPa | 0 mm | - | 76 W/m² | - |
| 1778068491 | 20.56° C | 93% | 1013.7 hPa | 0 mm | - | 69 W/m² | - |
| 1778068189 | 20° C | 94% | 1013.9 hPa | 0 mm | - | 62 W/m² | - |
| 1778067886 | 20° C | 96% | 1013.8 hPa | 0 mm | - | 60 W/m² | - |
| 1778067585 | 19.44° C | 96% | 1013.7 hPa | 0 mm | - | 36 W/m² | - |
| 1778067282 | 19.44° C | 97% | 1013.4 hPa | 0 mm | - | 29 W/m² | - |
| 1778066978 | 19.44° C | 97% | 1013.7 hPa | 0 mm | - | 27 W/m² | - |
| 1778066676 | 19.44° C | 97% | 1013.6 hPa | 0 mm | - | 25 W/m² | - |
| 1778066373 | 19.44° C | 98% | 1013.7 hPa | 0 mm | - | 25 W/m² | - |
| 1778066071 | 18.89° C | 98% | 1013.7 hPa | 0 mm | - | 26 W/m² | - |
| 1778065768 | 18.89° C | 98% | 1013.7 hPa | 0 mm | - | 25 W/m² | - |
| 1778065466 | 18.89° C | 98% | 1013.8 hPa | 0 mm | - | 21 W/m² | - |
| 1778065162 | 18.89° C | 99% | 1013.8 hPa | 0 mm | - | 19 W/m² | - |
| 1778064858 | 18.89° C | 99% | 1013.9 hPa | 0 mm | - | 15 W/m² | - |
| 1778064556 | 18.89° C | 99% | 1013.7 hPa | 0 mm | - | 13 W/m² | - |
| 1778064254 | 18.89° C | 99% | 1013.6 hPa | 0 mm | - | 10 W/m² | - |
| 1778063952 | 18.89° C | 99% | 1013.7 hPa | 0 mm | - | 7 W/m² | - |
| 1778063648 | 18.89° C | 99% | 1013.8 hPa | 0 mm | - | 5 W/m² | - |
| 1778063345 | 18.89° C | 99% | 1013.8 hPa | 0 mm | - | 3 W/m² | - |
| 1778063043 | 18.89° C | 99% | 1014 hPa | 0 mm | - | 2 W/m² | - |
| 1778062740 | 18.89° C | 99% | 1013.7 hPa | 0 mm | - | 1 W/m² | - |
| 1778062437 | 18.89° C | 98% | 1013.5 hPa | 0 mm | - | 0 W/m² | - |
| 1778062134 | 18.89° C | 98% | 1013.7 hPa | 0 mm | - | 0 W/m² | - |
| 1778061833 | 18.89° C | 98% | 1013.7 hPa | 0 mm | - | 0 W/m² | - |
| 1778061530 | 18.89° C | 98% | 1013.4 hPa | 0 mm | - | 0 W/m² | - |
* Rain latest hour (hover to see other rain measurements)
** Current wind speed in m/s (hover to see current wind gust speed)